Lapse_Rate
6.0 5.9 6.1 5.9 5.9 5.8 5.6 5.7 5.7 5.9 5.9 5.8 5.7 5.5 5.2 5.1 5.0 5.2 5.4 5.4 5.3 5.2 5.2 5.2 5.2 5.2 5.1 5.2 5.3 5.3 5.3 5.2 5.1
5.9 5.8 5.8 5.9 5.9 5.9 6.0 6.0 5.9 6.1 6.1 6.1 6.0 5.8 5.6 5.3 5.2 5.2 5.4 5.5 5.5 5.4 5.2 5.1 5.1 5.0 4.9 5.0 5.0 5.0 5.1 5.1 5.1
5.8 5.8 5.8 5.7 5.7 5.8 5.9 6.0 5.9 6.0 6.2 6.3 6.2 5.9 5.8 5.7 5.5 5.3 5.5 5.4 5.5 5.5 5.4 5.3 5.2 5.1 5.0 5.0 4.9 4.8 4.9 4.9 4.9
5.9 5.8 5.7 5.7 5.6 5.6 5.6 5.8 5.9 5.9 6.1 6.3 6.5 6.2 5.9 5.7 5.7 5.6 5.6 5.6 5.5 5.4 5.4 5.3 5.2 5.1 5.0 5.0 4.9 4.9 4.9 5.0 4.9
5.8 5.7 5.6 5.6 5.4 5.4 5.4 5.5 5.7 5.8 5.8 6.0 6.3 6.4 6.2 6.0 5.7 5.7 5.7 5.7 5.5 5.5 5.4 5.1 5.0 5.0 4.9 4.9 4.9 4.8 4.9 4.9 5.0
5.6 5.7 5.6 5.6 5.6 5.4 5.4 5.4 5.4 5.5 5.7 5.8 6.0 6.2 6.2 6.1 6.0 5.9 5.7 5.7 5.6 5.5 5.6 5.4 5.3 5.0 4.9 4.8 4.7 4.7 4.7 4.7 4.8
5.6 5.6 5.6 5.6 5.6 5.6 5.4 5.4 5.3 5.4 5.4 5.7 5.8 5.9 6.1 6.2 6.1 6.0 5.9 5.8 5.8 5.7 5.6 5.4 5.4 5.3 5.1 5.0 4.9 4.8 4.8 4.8 4.9
5.8 5.7 5.6 5.6 5.6 5.6 5.5 5.4 5.5 5.5 5.3 5.4 5.7 5.9 6.0 5.9 6.0 6.1 6.1 6.0 6.0 5.8 5.9 5.7 5.4 5.3 5.2 5.1 5.0 4.9 4.8 4.9 4.8
5.9 5.8 5.5 5.5 5.5 5.6 5.5 5.4 5.4 5.5 5.5 5.4 5.5 5.7 5.9 5.9 5.9 5.9 6.0 6.1 6.2 6.1 5.9 5.9 5.8 5.6 5.3 5.0 4.9 4.9 4.8 4.8 4.8
6.0 5.9 5.7 5.5 5.5 5.5 5.5 5.5 5.4 5.3 5.4 5.4 5.5 5.6 5.7 5.9 5.9 5.8 6.0 6.0 6.2 6.3 6.2 6.0 5.9 5.8 5.7 5.5 5.3 5.0 4.9 4.9 4.8
5.9 5.9 5.8 5.8 5.5 5.4 5.3 5.1 5.2 5.2 5.2 5.4 5.5 5.6 5.8 5.8 5.9 5.9 5.8 6.0 6.1 6.2 6.3 6.1 6.0 6.0 5.7 5.6 5.5 5.5 5.3 5.1 5.0
6.0 5.9 5.8 5.8 5.8 5.5 5.5 5.4 5.3 5.6 5.5 5.2 5.5 5.7 5.8 6.0 5.9 5.9 5.8 5.8 6.0 6.0 6.1 6.2 6.1 6.1 6.1 5.9 5.7 5.5 5.4 5.4 5.3
6.0 6.1 6.1 6.0 5.9 5.9 5.7 5.8 5.6 5.7 5.6 5.6 5.4 5.5 5.7 6.0 5.9 5.8 5.9 5.9 5.9 5.9 6.1 6.1 6.2 6.2 6.1 6.0 5.9 5.6 5.6 5.6 5.6
6.3 6.3 6.3 6.0 5.9 5.9 5.9 5.7 5.6 5.6 6.0 6.2 5.4 5.4 5.7 5.8 5.8 5.8 5.8 5.9 5.9 5.9 5.9 6.0 6.2 6.1 6.1 6.0 5.9 5.7 5.6 5.6 5.6
6.3 6.2 6.1 6.0 6.0 5.8 5.6 5.7 5.6 5.5 5.6 5.7 5.6 5.8 5.3 5.9 5.9 5.8 6.0 5.8 5.9 6.0 5.9 5.8 6.0 6.2 6.1 5.9 5.9 5.8 5.5 5.5 5.5
5.9 6.0 6.0 5.9 5.7 5.7 5.6 5.4 5.4 5.5 5.5 5.7 5.6 5.6 5.4 5.0 5.7 5.9 6.0 6.2 6.2 5.9 6.0 5.9 5.9 5.9 6.1 6.0 5.8 5.7 5.5 5.4 5.5
6.1 5.9 5.9 5.8 5.8 5.7 5.6 5.6 5.5 5.6 5.7 5.5 5.5 5.7 5.5 5.7 5.6 5.6 5.6 5.9 6.0 6.0 6.1 5.9 5.8 5.8 5.8 5.9 5.8 5.7 5.6 5.5 5.4
6.2 6.1 5.9 5.9 6.0 6.2 6.1 5.8 5.7 5.6 5.6 5.7 5.5 5.4 5.4 5.7 5.8 5.5 5.5 5.6 5.7 5.8 5.9 6.0 5.9 5.9 5.7 5.6 5.6 5.5 5.5 5.6 5.5
6.0 5.7 5.7 5.4 5.4 5.5 5.7 5.8 5.7 5.5 5.6 5.4 5.5 5.5 5.6 5.3 5.5 5.9 5.7 5.9 5.7 5.2 5.9 5.7 5.7 5.6 5.6 5.5 5.5 5.4 5.5 5.6 5.3
6.1 5.9 5.7 5.7 5.4 5.4 5.4 5.5 5.5 5.2 5.2 5.1 5.1 5.2 5.2 5.3 5.3 5.3 5.6 5.8 5.8 6.2 6.1 5.5 5.7 5.6 5.2 5.3 5.5 5.3 5.4 5.6 5.3
Wind_Speed
6 6 3 4 6 8 9 9 9 10 11 12 11 6 3 5 8 5 4 3 8 7 8 7 12 11 10 12 11 12 12 11 11
8 7 5 6 7 9 9 9 9 9 9 11 9 6 2 6 6 7 6 6 7 9 9 6 10 10 9 10 9 10 11 10 10
10 9 8 8 9 10 11 10 11 10 11 11 9 7 4 5 8 7 7 8 10 7 9 7 7 6 8 8 8 9 8 8 8
11 11 11 10 10 11 12 12 11 12 12 11 9 9 6 6 9 9 8 9 10 9 10 10 7 7 7 7 6 7 7 6 6
12 12 12 13 13 12 13 14 13 13 13 12 12 10 7 5 10 10 10 9 10 10 9 8 9 8 7 7 6 6 5 5 5
10 10 14 14 15 15 15 16 15 15 14 14 13 12 9 7 8 11 13 12 12 11 11 10 11 10 10 9 7 7 6 5 4
12 13 15 17 16 17 17 17 17 16 14 14 14 14 12 11 10 13 14 14 15 13 13 13 13 12 11 10 9 8 7 6 5
9 11 13 14 17 12 13 14 14 13 13 12 13 14 14 14 14 13 15 17 18 15 15 15 14 14 13 12 11 10 9 8 7
6 6 9 8 10 10 12 11 12 12 14 14 11 13 13 14 15 17 16 18 20 19 17 17 17 16 15 15 14 13 12 11 10
5 5 7 8 9 10 10 11 12 11 13 13 12 11 13 15 13 16 20 19 21 22 19 18 18 18 17 17 15 15 14 13 12
5 4 4 7 10 11 11 9 9 9 11 11 14 13 12 14 14 15 18 22 22 23 22 20 19 19 19 18 17 16 16 15 14
8 4 4 5 9 11 11 10 11 9 9 12 11 12 15 13 14 15 15 17 23 24 26 23 21 20 19 20 19 18 18 17 16
9 5 5 9 9 7 6 7 8 9 11 11 11 10 11 13 15 15 15 15 16 19 25 25 23 22 22 21 21 20 19 19 18
10 5 6 11 4 5 6 7 7 8 9 10 10 9 9 10 10 11 14 16 17 16 20 28 26 24 23 24 22 22 20 19 21
11 6 5 7 4 4 5 8 8 8 8 8 8 9 8 9 8 10 12 16 18 19 17 17 23 28 25 25 25 24 22 21 20
10 7 5 5 6 6 6 7 9 9 6 7 6 5 7 8 9 9 8 10 14 15 16 16 15 18 27 26 26 26 24 23 21
9 8 7 6 6 6 6 7 8 9 4 6 3 4 3 8 9 8 9 10 7 9 16 16 16 16 15 20 28 27 27 28 27
10 8 6 6 6 7 6 7 9 10 8 8 7 3 5 2 3 10 11 12 9 9 10 16 18 18 17 17 21 27 27 30 30
11 8 8 8 6 7 6 6 8 7 11 6 9 12 3 3 2 2 7 9 10 11 8 9 13 16 17 20 22 24 28 28 29
9 8 8 7 6 6 6 6 7 8 9 10 8 10 10 11 10 10 3 3 6 9 9 9 8 12 14 15 19 29 27 27 28
Wind_Direction
188 186 185 169 170 171 151 157 161 164 169 161 156 146 111 158 150 145 146 121 125 124 121 135 113 110 100 100 108 102 96 96 94
196 195 198 192 184 175 167 172 174 179 181 179 174 148 120 155 163 164 158 156 139 146 141 115 121 121 123 115 113 97 104 99 94
201 198 203 205 202 193 186 184 187 191 197 197 184 173 157 170 180 189 178 170 160 170 154 158 140 139 125 126 118 112 117 105 106
214 205 204 209 211 207 203 198 197 199 201 209 206 191 180 177 189 198 206 184 171 158 164 171 161 160 155 137 134 125 128 124 117
225 211 214 215 219 218 214 208 206 208 207 207 213 213 200 193 196 206 219 212 201 193 178 177 170 176 179 170 162 151 151 142 139
251 225 225 224 225 222 222 217 212 214 217 217 216 213 214 213 210 215 218 225 215 202 196 199 196 197 198 192 185 184 179 177 175
259 250 238 232 230 230 225 226 220 220 220 221 220 216 216 214 221 222 223 226 222 212 210 213 209 204 206 207 210 208 204 202 206
261 254 246 235 232 230 231 231 220 211 214 219 218 217 217 220 220 227 225 223 225 223 210 214 216 211 213 215 217 221 223 226 226
262 243 249 236 225 217 227 230 227 218 216 216 217 219 218 219 224 224 228 222 224 232 221 216 220 222 223 222 221 222 223 227 233
275 252 246 247 225 227 227 230 232 222 221 222 220 220 221 222 221 225 228 226 226 230 234 224 225 226 226 227 228 229 231 232 237
267 267 249 244 243 235 227 230 223 227 222 225 221 223 221 221 221 224 230 231 227 226 230 231 234 231 231 232 232 231 234 238 241
267 263 266 266 246 238 237 239 236 222 218 227 223 222 221 216 217 223 226 230 233 225 226 232 232 233 234 234 235 235 235 238 241
259 253 251 256 263 265 256 250 250 242 228 225 223 220 221 222 215 214 216 221 228 230 225 227 233 233 231 236 238 239 237 232 234
241 241 244 247 242 241 251 262 248 252 262 231 233 228 224 231 221 217 214 216 220 224 227 223 226 231 230 232 239 241 238 236 233
251 249 237 236 241 248 248 254 257 253 255 268 282 224 220 219 221 225 215 215 218 219 217 223 228 226 228 229 234 239 245 244 237
256 251 235 223 229 233 233 250 259 262 256 261 268 247 240 220 227 222 227 213 211 215 221 220 220 225 225 227 231 235 240 245 248
255 252 240 222 235 234 231 239 257 259 234 250 229 251 242 216 215 210 218 219 203 217 219 219 219 219 217 224 227 229 234 240 245
252 248 230 227 224 238 219 232 243 258 250 220 224 241 224 181 208 218 217 214 204 210 217 219 219 218 218 218 223 224 227 236 243
262 247 239 231 221 223 217 220 238 246 257 252 237 242 171 222 270 275 230 222 216 215 208 214 217 222 223 223 224 219 221 232 241
267 254 250 241 241 246 229 231 229 230 244 252 252 242 235 233 242 258 271 236 220 222 222 204 208 212 234 238 229 222 222 230 239